Terminal Aerodrome Forecast
Issued by NWS

Home | Current Version | Previous Version | Text Only | Print | Product List | Glossary Off
Versions: 1 2 3 4 5 6 7 8 9 10 11 12 13 14 15 16 17 18 19 20 21 22 23 24 25 26 27 28 29 30

000
FTUS45 KGGW 152300
TAFOLF
TAF
KOLF 152329Z 1600/1624 VRB04KT P6SM OVC020
     FM160600 VRB03KT P6SM BCFG OVC010
     FM161700 09008KT P6SM FEW020=

USA.gov is the U.S. government's official web portal to all federal, state and local government web resources and services.